GEFSGL_500_meanwind_252.txt.gz
Wind_Speed
12 13 13 13 13 13 12 13 13 13 13 13 13 14 14 14 14 14 14 14 14 14 14 14 14 14 15 16 16 16 17 17 17 17 18 18 17 16 16 17 17 17 18
13 13 13 13 13 13 13 13 14 14 14 14 14 15 15 14 14 14 15 14 14 14 14 14 14 15 16 16 16 17 17 17 16 16 17 17 17 17 16 17 17 18 18
14 14 14 14 14 14 14 14 15 15 15 15 15 15 15 15 15 15 15 15 15 15 15 15 15 15 16 16 17 17 17 17 17 16 16 17 17 17 16 17 17 18 19
15 15 15 15 15 16 15 15 15 16 16 15 16 16 16 16 15 16 16 16 17 17 16 16 16 16 16 16 17 17 17 17 17 17 17 17 16 16 17 17 18 19 20
16 17 16 16 17 17 16 16 16 17 17 17 16 16 17 17 17 17 17 17 17 18 17 17 17 17 17 17 18 18 18 18 18 18 17 17 17 17 18 18 19 20 21
17 18 17 17 18 17 18 18 18 18 18 17 17 17 17 18 17 17 18 18 18 19 19 19 19 18 18 18 18 18 19 19 19 19 19 18 18 18 18 19 20 20 21
19 19 19 19 19 19 19 19 20 20 20 19 19 18 18 18 18 18 18 19 19 20 20 20 20 19 19 19 20 20 20 20 20 20 20 20 20 19 19 20 20 21 22
20 20 20 20 20 20 21 21 21 22 21 21 20 20 19 19 19 19 20 20 21 21 21 21 21 21 21 21 21 21 21 21 21 21 21 21 21 21 20 21 21 21 22
21 21 21 21 22 22 22 22 22 22 22 22 21 20 20 20 21 21 21 21 21 22 22 22 22 22 22 22 22 22 22 23 22 22 23 22 22 22 22 22 22 23 23
22 22 22 22 22 22 23 23 23 23 23 23 22 21 22 22 22 23 23 22 23 23 24 24 23 23 23 24 23 23 23 23 23 23 23 23 23 23 23 23 23 23 23
23 23 23 23 23 24 24 24 24 24 24 24 24 23 23 24 24 25 24 24 24 24 25 25 24 24 24 24 24 24 24 24 24 24 24 24 24 23 23 23 24 24 24
25 25 25 25 25 25 25 25 26 25 25 25 26 25 25 25 26 26 26 26 25 26 26 26 25 25 25 25 25 25 25 25 25 25 25 25 25 24 24 24 24 24 24
27 26 26 27 27 27 27 27 27 27 27 27 27 27 27 27 28 28 28 27 27 27 26 27 26 26 26 26 26 26 26 26 25 26 26 26 26 25 25 25 25 25 24
29 29 29 29 29 29 29 29 29 29 29 29 28 29 29 29 29 29 29 29 29 28 28 27 27 27 27 27 27 27 27 27 27 27 27 27 27 26 25 25 25 26 26
32 32 31 31 32 32 32 32 31 31 31 31 30 31 31 30 30 31 30 30 29 28 28 28 28 28 28 28 28 28 28 28 27 27 26 25 25 25 26 26 26 26 27
34 33 33 33 33 34 34 34 33 33 32 32 33 32 31 31 31 30 30 30 30 30 30 30 29 29 29 28 28 28 27 27 27 27 27 26 26 26 26 27 27 27 27
36 35 34 34 34 35 35 35 34 33 33 33 33 32 32 32 32 31 30 30 30 30 30 30 30 30 29 28 28 28 28 28 28 28 28 28 27 27 28 29 29 29 30
37 37 36 35 36 35 35 34 34 33 33 33 33 32 32 31 31 31 30 30 30 30 30 30 31 30 29 29 29 29 30 29 30 30 30 30 29 29 29 30 30 31 32
37 37 37 37 36 35 35 34 34 34 34 34 33 33 33 32 32 32 31 31 31 31 31 31 31 31 30 30 31 31 31 30 31 31 31 31 31 31 31 31 32 32 33
38 38 37 37 36 36 35 35 35 35 34 34 34 35 34 34 33 33 33 32 32 32 33 32 31 32 31 31 31 32 32 32 32 32 32 33 33 33 33 33 33 34 34
37 37 36 36 37 36 34 34 34 35 35 35 35 34 35 35 34 34 34 34 33 33 33 32 32 32 32 32 33 33 33 33 33 34 34 33 33 34 33 33 34 35 34
36 36 36 36 36 35 34 34 34 34 35 35 35 34 34 34 34 34 34 34 34 34 34 33 33 33 33 33 33 33 33 34 35 35 35 34 35 35 34 34 34 35 34
36 36 36 36 35 35 35 35 35 35 35 35 35 34 34 34 34 34 34 34 34 34 34 34 34 34 33 33 34 34 34 34 36 36 36 36 35 35 35 35 35 35 35
35 36 36 35 36 36 35 35 35 36 35 35 35 35 35 35 34 34 34 34 34 34 34 34 34 34 34 35 35 35 35 36 37 37 37 37 36 37 37 37 36 36 36
35 35 34 35 35 35 35 35 35 36 36 35 35 35 35 35 35 34 34 34 34 34 34 34 34 34 34 34 35 35 35 36 37 37 37 37 37 37 37 37 37 37 37
34 34 34 34 34 34 34 35 35 35 35 34 34 34 34 34 33 34 34 33 34 34 34 34 34 35 35 35 35 35 35 36 35 36 36 36 36 36 37 37 37 38 38

GEFSGL_500_meanwind_258.txt.gz
Wind_Speed
9 10 11 12 12 12 11 11 11 11 12 12 13 13 14 14 14 14 14 13 13 13 12 12 13 13 13 14 14 15 15 16 16 16 16 16 16 16 16 16 16 17 17
9 10 11 12 12 12 12 12 12 12 12 13 13 14 14 14 15 14 14 14 14 14 13 13 13 13 14 14 15 15 15 16 16 16 16 16 17 16 17 17 17 17 17
9 10 12 12 13 13 13 13 12 13 13 14 14 14 14 14 15 15 15 14 15 15 15 15 15 14 14 15 15 15 15 16 16 16 16 17 17 17 17 17 17 17 17
11 12 13 13 13 14 14 14 13 14 14 15 15 15 15 15 15 15 15 15 16 17 17 17 16 16 16 16 16 16 17 17 16 17 17 18 18 17 17 17 17 18 18
13 13 13 14 15 15 15 14 14 15 15 16 16 16 16 16 16 16 16 16 17 17 18 18 17 17 17 17 17 18 18 18 18 18 18 19 18 17 18 18 18 18 18
14 15 15 16 16 16 16 16 16 16 16 16 17 17 17 18 18 17 17 17 18 18 19 19 19 18 18 19 19 19 19 19 19 20 20 20 19 19 19 19 19 19 19
16 16 17 17 17 17 18 18 18 18 18 18 18 19 19 19 19 20 19 19 19 19 20 20 20 20 20 20 20 21 21 21 21 21 21 21 21 20 20 21 21 21 20
18 18 19 19 20 20 20 20 20 20 20 20 20 20 20 21 21 21 21 20 21 21 21 21 20 21 22 21 22 22 22 22 23 23 22 22 22 22 22 22 22 22 21
21 21 21 22 22 22 22 22 22 22 21 22 22 22 22 22 22 22 22 23 23 23 23 23 22 22 23 23 23 23 23 23 23 23 24 24 23 23 23 23 23 23 22
23 23 23 24 24 24 24 23 23 24 24 24 24 24 24 23 24 23 24 24 25 25 25 25 24 24 24 24 24 24 24 24 25 25 25 25 25 25 24 24 24 24 23
25 26 26 26 26 26 26 26 26 26 26 26 26 25 25 25 25 25 26 26 27 26 26 26 26 26 26 25 25 25 25 25 26 26 26 26 25 25 25 25 25 24 24
28 28 29 29 28 28 28 27 28 27 28 27 27 27 26 26 27 27 27 28 28 27 28 28 28 26 26 26 26 25 26 26 27 27 27 27 26 25 25 26 26 26 25
30 31 31 31 30 30 29 29 29 29 29 28 28 28 28 28 28 28 28 29 29 29 29 29 28 27 27 27 27 27 28 29 28 28 28 28 27 26 26 26 25 26 26
32 32 32 32 31 31 31 32 32 31 31 31 30 30 30 30 29 29 29 29 29 30 30 30 29 29 28 28 28 29 29 29 29 29 29 28 27 27 26 26 26 26 26
33 33 33 33 32 32 32 33 33 33 33 33 32 32 32 31 31 30 30 30 30 30 30 30 29 29 28 29 29 29 29 30 30 30 29 28 27 27 27 27 27 27 27
34 34 34 34 34 34 34 34 35 35 35 35 34 33 33 33 32 32 31 31 31 31 31 31 30 30 30 30 30 31 31 31 31 31 30 28 28 28 28 28 28 29 28
36 36 36 36 36 36 36 36 36 36 35 35 34 33 33 34 33 33 33 33 32 32 31 31 31 31 31 31 31 31 31 31 31 31 30 29 29 29 29 29 30 30 30
37 38 38 38 38 37 38 38 37 36 36 36 35 34 34 35 34 35 35 34 33 32 32 31 32 32 32 32 32 31 31 31 31 31 31 30 30 30 30 30 31 31 31
38 38 38 38 38 38 38 38 38 38 37 36 36 36 34 34 34 34 35 34 33 32 32 32 32 32 32 32 32 32 32 31 31 31 31 31 31 32 32 32 32 32 32
37 38 38 38 38 38 38 38 38 38 37 37 35 35 33 33 33 33 34 33 33 33 33 32 32 32 33 33 32 32 32 32 32 32 32 32 32 32 33 33 32 32 32
36 36 37 37 38 38 38 38 37 37 35 34 34 34 34 33 32 33 33 32 33 33 33 33 33 32 32 32 32 32 33 33 33 33 33 33 32 32 32 32 32 32 32
36 36 36 37 37 37 38 38 37 36 34 34 34 34 33 32 32 32 33 33 33 33 33 33 32 32 32 33 33 34 34 34 33 33 32 32 32 32 32 32 32 33 33
35 35 36 36 36 35 35 34 34 34 33 34 35 35 34 33 33 33 33 33 33 33 33 32 32 32 33 33 33 34 34 34 34 34 33 33 33 33 33 33 34 34 35
33 33 33 32 32 33 33 33 33 33 33 34 34 34 34 33 33 33 33 33 33 33 33 32 32 33 34 34 34 34 35 35 35 34 34 34 34 34 34 34 34 34 34
32 31 32 32 32 32 33 33 33 33 32 32 33 33 33 33 33 33 34 34 33 33 34 34 34 34 34 34 34 34 34 35 35 34 33 34 34 34 35 35 35 35 35
31 31 31 30 31 31 30 31 31 31 31 31 31 31 31 31 32 33 33 33 33 33 34 34 34 34 34 34 34 34 34 34 34 33 33 33 33 33 34 34 34 35 35

GEFSGL_500_meanwind_264.txt.gz
Wind_Speed
11 11 12 12 12 12 12 12 12 12 11 12 13 14 14 14 14 14 14 14 14 14 15 15 15 15 15 16 16 16 16 17 17 17 17 17 18 18 17 18 18 18 17
11 11 12 12 12 12 13 14 14 13 13 14 14 15 15 15 15 15 14 15 15 16 16 16 17 17 17 17 18 18 18 18 18 18 18 18 18 18 19 19 19 19 18
12 12 12 14 14 14 14 14 14 14 15 15 16 16 16 16 16 16 16 16 16 17 17 18 18 18 18 18 19 19 19 18 18 18 18 19 19 19 19 19 19 19 18
14 14 14 14 15 15 15 15 16 16 17 17 17 17 17 17 17 17 17 17 18 18 18 18 19 19 19 19 20 20 20 20 19 19 19 20 19 19 20 20 19 19 18
14 14 14 15 15 16 16 17 17 18 18 18 18 19 19 19 19 19 19 20 19 20 20 20 20 20 21 21 21 21 21 21 21 21 21 20 20 20 20 21 20 20 20
16 15 16 16 17 18 18 19 19 20 20 20 20 20 20 20 21 21 21 21 21 21 21 21 22 22 23 23 23 23 23 23 22 22 21 22 22 22 22 22 21 21 20
18 18 18 18 19 20 20 21 21 22 22 21 21 21 21 22 22 23 23 23 22 23 23 24 24 24 24 24 24 24 24 24 24 24 23 23 23 23 23 22 23 23 22
21 21 21 21 22 22 23 23 24 24 23 23 23 23 23 23 24 24 25 25 25 25 25 26 26 26 26 25 25 25 25 25 25 25 24 24 24 24 24 24 24 24 23
22 23 23 23 24 24 25 25 26 25 25 25 25 25 25 25 26 26 26 27 27 26 27 27 27 27 27 27 27 26 26 26 27 27 27 26 26 25 25 25 26 25 25
24 25 25 25 26 27 27 27 28 28 27 27 27 27 27 27 27 27 28 28 28 28 28 28 28 28 28 28 28 28 28 27 27 27 27 27 27 27 26 26 27 26 25
26 27 27 27 27 28 29 30 30 29 28 28 28 28 28 28 28 28 29 29 30 29 29 29 29 29 29 29 29 29 28 28 28 27 27 27 27 27 27 27 27 27 26
27 27 28 28 29 30 31 31 31 31 31 30 30 29 30 30 30 30 31 32 32 31 31 31 31 30 30 30 30 30 29 29 28 27 27 27 27 27 27 27 27 27 27
28 27 28 29 30 31 31 32 33 32 32 31 31 31 31 31 32 33 33 34 34 34 33 34 33 32 32 31 30 30 30 29 29 28 27 27 27 27 28 28 28 28 28
29 29 29 29 30 31 32 33 33 32 32 32 33 33 33 33 34 34 35 35 36 35 35 35 35 34 33 32 31 30 30 29 28 28 28 28 28 29 29 29 29 28 29
29 30 30 31 32 33 33 32 32 33 33 33 34 34 35 35 35 35 36 36 36 36 36 36 36 35 34 33 31 31 29 29 29 29 29 30 30 30 30 30 30 30 30
31 31 32 32 33 34 33 33 33 34 34 34 34 35 35 35 35 35 36 36 36 36 36 36 36 36 35 34 32 31 30 29 29 29 30 30 30 30 30 30 30 30 31
32 32 33 33 34 34 34 34 34 35 35 35 35 35 36 36 36 36 36 36 35 35 36 36 36 36 34 32 31 31 30 30 31 31 31 31 31 31 30 31 31 31 31
33 34 35 35 35 34 35 35 35 36 36 36 36 36 37 37 37 37 37 36 35 35 35 35 35 34 33 33 32 31 32 32 32 32 31 31 31 31 31 31 31 31 31
34 35 35 35 35 34 35 35 36 36 36 36 37 38 38 37 36 36 36 34 34 34 34 34 34 34 33 32 32 32 32 32 32 31 32 33 33 33 33 33 32 32 32
34 34 34 34 35 35 35 36 36 36 37 37 37 37 37 37 36 36 36 34 34 33 33 33 33 33 33 32 32 32 33 33 33 33 33 34 34 34 34 34 33 33 32
35 34 34 34 35 35 36 36 36 37 37 37 36 36 36 36 36 36 35 34 33 33 33 33 33 32 32 32 32 32 33 33 33 33 33 34 34 34 34 34 34 33 33
34 34 34 35 35 35 35 36 37 37 36 36 35 35 35 35 35 35 34 33 33 33 34 34 33 32 31 31 31 32 32 33 33 33 33 33 33 33 33 33 34 33 33
34 34 34 35 36 36 36 36 36 36 35 34 34 34 34 34 34 33 33 34 33 33 33 33 33 31 31 31 31 31 32 33 34 34 34 33 33 33 34 34 34 33 33
34 34 34 34 35 36 36 35 35 35 35 34 34 34 34 33 33 33 33 33 31 31 31 32 31 31 32 32 32 32 33 34 34 35 34 34 34 34 34 34 34 34 34
32 32 33 34 34 34 34 33 33 33 34 33 33 33 33 33 33 33 32 30 30 30 31 31 31 32 33 32 33 33 35 35 35 35 34 34 34 35 35 34 34 34 34
32 32 32 32 32 32 32 33 33 33 33 33 32 31 32 33 33 33 32 31 31 31 31 31 31 31 32 32 33 34 34 34 34 34 35 34 34 34 34 33 33 34 34

GEFSGL_500_meanwind_270.txt.gz
Wind_Speed
10 10 10 9 9 10 10 10 10 10 10 10 10 10 11 12 12 12 11 12 12 12 13 13 13 14 14 14 15 15 15 15 14 14 15 15 15 16 16 17 17 17 17
11 11 11 10 10 11 11 11 11 11 11 11 11 12 13 13 13 13 13 13 13 13 13 14 14 15 15 16 16 16 16 15 15 16 17 17 17 17 17 17 18 18 17
12 12 11 11 11 11 12 12 12 11 12 12 13 14 14 13 13 14 14 15 14 14 14 14 15 15 16 17 17 17 17 17 17 18 18 18 18 18 18 19 19 19 18
13 12 12 11 11 12 13 13 12 13 13 14 14 15 15 15 15 16 16 16 16 16 15 16 16 16 17 17 18 18 18 19 19 19 19 19 20 20 20 20 20 19 19
14 13 12 12 12 13 13 13 13 14 15 15 16 16 16 16 17 17 17 17 18 17 17 17 17 18 19 19 19 20 20 20 21 21 21 21 21 21 21 21 21 21 20
15 14 14 14 14 14 14 14 15 16 16 17 17 17 18 18 19 19 19 20 20 19 18 19 19 19 21 21 22 22 22 23 22 23 23 22 22 22 22 22 22 22 21
17 16 15 15 15 15 16 17 17 17 18 18 18 19 19 20 20 20 21 21 21 20 21 21 21 21 22 23 23 24 24 25 24 24 24 23 24 23 23 23 23 23 22
17 17 16 16 16 16 17 18 19 20 20 20 20 21 21 21 21 21 21 21 21 21 22 22 23 23 23 24 24 25 25 25 25 25 24 24 24 25 25 25 24 24 24
17 17 18 18 18 18 19 20 21 21 22 22 22 23 23 23 22 22 22 22 23 23 24 24 25 25 25 26 25 26 26 26 26 26 25 24 25 26 26 26 26 25 25
19 20 20 21 21 21 21 22 22 23 23 24 24 24 24 24 24 24 24 24 25 25 25 26 26 27 27 27 27 27 26 26 26 26 26 26 27 27 27 27 27 27 26
21 21 22 22 22 23 23 24 25 25 25 25 25 25 25 25 26 26 26 26 27 27 28 28 28 29 29 29 29 28 28 28 27 27 28 27 28 28 27 28 28 27 27
22 22 22 23 24 24 25 26 26 26 27 27 27 26 26 26 26 27 28 29 29 29 29 30 30 30 31 30 29 29 29 29 29 29 29 28 28 28 28 28 28 27 27
24 24 24 25 25 25 26 26 27 27 28 28 27 27 27 27 27 28 29 30 31 31 31 31 32 32 31 30 29 29 30 30 30 31 31 30 30 30 29 29 28 28 28
27 26 26 26 26 27 27 27 27 27 27 27 28 28 28 28 29 29 30 31 31 32 32 32 32 32 32 30 29 30 30 31 32 32 31 31 31 30 30 29 28 28 28
28 28 27 27 27 27 27 26 27 27 28 28 28 28 28 29 29 30 31 31 32 32 32 31 31 31 31 31 31 31 31 32 32 31 30 30 29 29 30 30 29 29 30
29 29 28 28 27 27 27 27 27 28 29 28 28 28 29 29 30 30 31 31 31 32 32 32 31 31 31 31 31 31 31 31 30 30 30 30 30 30 30 30 30 30 31
30 29 28 28 27 28 28 28 28 29 30 30 29 30 31 30 31 31 31 31 32 32 32 31 31 31 31 31 31 31 30 30 30 30 30 30 30 30 30 30 31 31 31
30 29 29 29 28 28 29 29 29 30 30 30 30 30 31 31 31 32 32 32 32 32 32 32 31 31 30 30 30 30 30 29 29 30 30 30 30 31 32 32 33 33 33
31 30 31 30 30 29 29 29 29 29 30 30 31 31 31 32 32 32 32 31 32 33 33 32 31 30 30 30 30 30 30 29 30 31 31 31 31 31 32 33 34 34 33
32 32 31 30 30 29 29 28 28 29 30 31 31 31 32 31 31 31 31 31 32 33 32 31 31 31 30 30 30 30 30 30 30 30 30 31 31 31 32 33 33 33 33
32 32 32 32 31 31 30 30 30 30 31 31 31 32 32 32 31 31 32 32 32 32 31 30 30 31 31 31 31 30 30 30 30 30 31 31 32 32 33 33 33 33 33
33 32 31 31 32 32 31 31 31 31 32 32 32 32 32 32 32 32 31 31 32 32 31 30 31 31 31 31 30 30 31 31 31 31 31 31 32 32 33 33 33 33 32
32 31 31 31 31 31 31 31 31 31 31 32 31 31 31 31 32 32 32 31 32 32 32 31 32 32 31 30 31 31 31 32 32 31 31 31 31 31 32 32 32 32 32
32 31 31 30 31 31 31 31 31 32 32 32 31 31 31 32 32 32 32 32 32 33 32 32 32 32 31 31 31 32 32 32 32 32 32 32 31 31 31 31 31 31 31
31 30 31 31 31 31 31 31 31 31 32 32 31 30 31 31 32 32 32 31 32 32 32 32 31 31 31 32 32 33 33 33 33 32 32 32 31 30 30 30 31 31 31
30 30 30 31 31 31 31 31 31 31 31 31 30 31 32 32 31 31 31 31 31 31 31 31 31 32 33 33 33 33 33 32 32 32 31 31 30 30 30 31 32 32 31

GEFSGL_500_meanwind_276.txt.gz
Wind_Speed
7 7 8 8 8 9 10 11 11 11 11 12 12 12 13 13 12 13 13 13 14 15 15 15 15 16 16 16 17 17 17 18 18 18 17 17 17 17 17 18 18 19 19
8 9 9 9 10 11 12 12 12 12 12 13 13 13 14 14 14 14 15 15 15 16 15 15 16 16 16 17 18 18 19 19 19 19 19 19 19 19 18 18 19 20 20
9 10 10 10 11 12 12 13 13 13 13 14 14 14 14 15 15 15 16 16 17 17 17 16 16 17 17 18 19 20 20 20 20 20 20 20 20 20 20 20 21 21 21
11 12 12 12 13 13 13 14 14 14 14 15 15 15 15 16 16 17 17 18 18 19 18 18 18 18 18 19 20 20 21 21 21 21 21 21 21 21 21 21 21 22 22
13 13 14 14 14 14 15 15 15 15 15 16 16 16 16 17 17 18 19 19 18 18 19 19 19 19 20 21 21 22 22 22 22 22 23 22 22 23 23 23 23 23 23
14 15 15 15 15 15 15 16 16 16 16 17 17 18 18 18 19 20 20 20 19 19 19 20 21 21 21 22 22 23 23 23 23 23 23 23 23 24 24 24 24 24 24
16 16 16 16 16 16 16 17 17 17 18 18 18 19 20 20 20 21 21 22 21 21 21 22 22 22 22 23 24 24 24 24 25 25 25 25 25 26 26 26 25 24 24
17 17 17 17 17 17 18 18 18 19 19 20 21 22 22 22 22 22 23 23 23 23 23 23 23 23 23 24 25 25 25 26 26 27 27 27 27 28 27 27 27 26 25
18 18 18 19 19 19 19 20 20 20 21 22 23 23 24 24 24 24 24 24 24 24 24 25 25 25 25 25 26 26 26 27 28 28 29 29 29 29 29 28 27 27 26
21 20 20 20 20 20 21 21 22 22 23 23 24 24 24 24 24 25 25 25 25 26 26 27 27 27 27 27 28 28 28 29 29 29 29 30 29 29 30 30 29 28 27
22 22 22 22 22 22 23 24 24 24 25 25 24 25 25 25 25 25 26 26 26 26 27 28 28 28 29 29 29 30 30 30 30 30 30 30 30 31 32 31 30 29 29
23 23 23 23 23 23 24 25 26 26 26 26 26 26 26 26 26 26 26 26 27 28 28 29 29 30 30 30 31 31 31 31 31 30 30 31 31 31 32 31 30 30 30
25 24 24 25 24 25 26 26 26 27 27 27 27 27 26 26 27 27 27 28 28 29 30 30 30 30 30 31 31 31 31 31 31 30 31 31 30 30 31 31 31 31 31
26 25 26 26 26 27 26 26 27 27 27 28 27 27 27 27 27 27 27 28 29 30 31 32 33 32 32 32 32 32 32 32 31 31 32 31 30 31 31 31 31 32 31
27 26 27 27 27 28 27 27 28 28 28 28 28 28 28 28 28 28 28 29 30 30 31 32 33 33 33 32 32 32 33 33 32 31 30 30 31 31 31 32 32 32 32
28 28 28 28 28 29 28 28 28 29 29 29 28 28 28 29 29 29 29 29 30 30 31 31 32 32 32 32 32 32 32 32 32 31 31 31 31 32 32 32 32 33 32
29 29 28 28 29 29 29 29 29 29 30 30 30 30 30 30 30 30 30 30 31 31 31 32 32 32 32 32 31 31 31 31 32 32 32 31 32 32 32 32 32 32 31
30 29 29 29 29 29 30 30 30 31 31 31 31 31 31 31 31 30 31 31 32 32 32 33 32 32 32 31 31 31 31 31 31 32 32 32 32 32 32 32 32 32 31
31 31 30 30 30 30 30 30 31 31 31 31 31 31 31 30 30 31 31 32 32 32 32 32 31 31 30 30 31 31 31 31 31 31 32 32 32 32 32 32 32 32 31
32 32 32 31 31 30 30 30 30 31 30 30 30 30 30 31 31 31 31 31 31 31 31 31 30 30 30 31 31 31 32 32 33 33 32 32 33 33 32 32 32 31 31
32 32 32 32 32 31 31 31 31 31 31 30 30 30 31 31 31 31 30 30 31 31 31 31 31 31 31 31 31 32 32 33 33 33 32 32 32 32 32 32 31 31 31
32 32 32 32 32 32 32 31 31 32 32 32 31 31 31 31 31 31 31 31 31 31 31 32 31 31 31 31 31 32 32 33 33 32 32 32 32 31 31 31 30 30 30
32 32 32 33 33 32 32 32 32 32 32 32 32 32 31 31 31 31 31 32 33 32 32 31 30 30 31 31 32 32 32 32 31 31 32 32 31 32 31 31 31 31 31
32 32 32 33 33 33 33 32 32 31 32 32 32 32 32 32 32 32 32 33 33 33 32 31 30 30 31 31 32 31 31 31 31 32 31 31 31 31 31 31 31 31 31
31 31 31 31 32 32 33 32 31 31 31 32 32 32 32 32 32 32 33 34 33 32 32 31 30 30 30 30 30 30 31 31 31 31 31 31 30 30 30 30 30 30 30
30 30 29 30 30 30 30 29 29 30 30 31 31 32 32 32 32 32 33 33 32 32 31 30 29 29 30 30 30 30 30 31 31 30 29 29 29 29 30 30 30 30 30

GEFSGL_500_meanwind_282.txt.gz
Wind_Speed
9 9 9 9 9 9 9 9 10 10 11 11 12 13 14 14 13 13 13 13 13 14 14 15 16 16 16 17 17 17 18 19 19 20 20 20 20 20 20 20 20 20 19
10 10 10 10 10 10 10 11 11 11 12 12 13 13 14 15 15 14 15 15 15 15 16 16 17 17 17 18 18 18 18 19 20 20 20 21 20 20 20 21 21 21 20
11 11 10 10 10 11 11 11 12 12 13 14 14 15 15 16 16 16 16 16 16 16 17 18 18 18 18 19 19 18 18 19 20 21 21 21 21 21 21 22 22 22 21
13 12 12 12 12 11 11 12 13 14 14 15 16 17 17 17 18 18 18 17 18 18 18 19 19 19 19 19 19 19 20 20 20 21 21 21 21 21 22 22 23 23 23
14 14 14 13 13 12 13 13 14 16 16 17 17 18 19 19 19 20 20 19 20 20 20 20 20 20 20 20 20 20 21 21 21 21 22 22 22 22 23 24 24 24 24
16 16 16 15 14 14 15 15 16 17 18 18 19 19 20 20 21 21 22 21 22 22 22 21 22 22 21 21 21 21 22 22 22 22 23 23 23 24 25 26 26 26 26
17 17 17 17 17 16 17 17 18 19 19 19 20 20 20 21 21 22 22 22 23 23 23 23 23 22 22 22 22 22 22 23 23 23 24 24 25 25 26 27 27 27 27
18 18 18 18 18 19 19 19 20 20 20 20 20 21 21 22 22 24 24 24 24 24 24 24 23 23 23 23 24 24 24 24 25 25 25 26 26 27 28 28 28 28 28
19 19 19 20 20 21 21 21 21 20 21 21 22 22 23 23 23 24 25 25 25 25 25 24 24 24 25 25 25 25 25 25 26 26 26 27 27 28 28 29 29 29 29
21 21 21 21 22 22 21 21 21 22 22 23 24 24 25 25 25 25 26 26 26 26 25 25 25 25 26 26 26 26 26 27 27 27 27 28 28 28 28 29 29 29 28
22 23 23 23 23 23 23 23 23 23 24 24 25 26 26 26 26 26 26 26 27 27 26 26 26 26 27 27 27 27 27 27 28 28 28 28 29 29 29 28 28 28 28
24 24 24 25 25 24 24 24 24 24 25 25 26 26 27 27 26 27 27 28 28 29 28 27 27 28 28 29 28 28 28 28 29 29 29 29 29 30 30 30 29 29 29
25 25 25 25 26 25 25 25 25 26 26 27 27 27 27 27 27 27 28 28 29 29 29 29 29 29 29 29 29 29 29 30 30 30 29 29 30 30 30 30 29 29 29
26 26 26 26 26 26 27 26 26 26 27 27 28 28 28 28 28 28 29 28 29 30 29 29 30 29 29 29 29 30 30 31 31 31 30 31 31 31 30 30 30 30 29
27 26 26 26 26 26 27 27 27 28 28 29 29 29 29 29 29 29 30 30 30 29 29 29 30 31 30 30 30 30 31 31 32 32 31 31 31 30 30 29 29 29 29
28 27 27 27 27 27 28 29 29 29 29 30 29 29 30 31 31 30 30 30 30 30 30 30 30 30 30 30 30 30 31 31 31 31 31 30 30 29 29 28 29 29 29
28 28 28 28 28 28 29 30 29 30 30 30 30 31 31 32 31 31 31 31 30 30 30 30 30 29 29 29 29 30 30 30 29 29 29 29 28 28 29 29 29 29 29
30 30 30 29 29 30 30 31 31 31 32 31 31 31 31 31 31 31 31 31 30 30 30 31 30 29 29 29 29 29 30 29 29 28 29 29 29 29 28 28 29 30 30
32 31 31 31 31 31 31 32 32 32 33 32 31 31 31 31 31 31 31 31 30 30 30 31 30 29 29 29 29 29 29 29 29 29 29 29 29 29 29 29 30 31 31
33 33 32 32 32 32 32 33 33 33 33 32 32 31 31 31 30 30 31 31 31 31 31 30 30 30 30 29 29 29 29 29 29 28 28 29 29 30 30 30 31 31 31
33 33 32 32 32 32 33 34 34 34 33 32 32 31 31 31 31 31 31 31 31 31 31 31 30 30 30 30 30 29 29 29 28 28 28 29 30 30 30 30 30 30 31
32 32 32 32 32 32 33 34 34 34 34 32 32 32 32 32 31 31 32 32 31 31 31 31 30 30 30 30 30 29 29 28 28 29 29 29 30 29 29 30 30 30 30
31 32 32 32 32 33 33 33 33 33 32 31 31 31 31 31 31 31 30 31 31 31 30 30 30 31 31 31 31 30 29 28 28 29 28 28 29 29 29 29 29 29 29
31 31 31 31 32 32 32 32 31 31 31 30 30 31 30 30 30 30 30 30 30 29 29 30 30 30 30 30 29 29 28 28 28 28 28 28 29 29 29 28 28 28 28
29 29 30 30 30 30 30 31 30 29 28 29 28 28 28 28 28 28 29 29 29 29 29 29 28 28 28 28 28 28 28 28 28 28 28 28 29 29 29 28 28 28 27
28 28 29 29 29 29 29 28 26 25 25 26 26 26 27 27 27 27 28 28 28 28 28 27 27 27 27 27 27 28 28 28 28 28 28 28 28 29 29 28 28 27 28